Regional Weather Roundup
Issued by NWS New Orleans/Baton Rouge, LA

Home | Current Version | Previous Version | Graphics & Text | Print | Product List | Glossary On
Versions: 1 2 3 4 5 6 7 8 9 10 11 12 13 14 15 16 17 18 19 20 21 22 23 24 25 26 27 28 29 30 31 32 33 34 35 36 37 38 39 40 41 42 43 44 45 46 47 48 49 50
377
ASUS44 KLIX 280001
RWRLIX
NEW ORLEANS REGIONAL WEATHER ROUNDUP
NATIONAL WEATHER SERVICE NEW ORLEANS LA
700 PM CDT SUN JUL 27 2014

NOTE: "FAIR" INDICATES FEW OR NO CLOUDS BELOW 12,000 FEET WITH NO
      SIGNIFICANT WEATHER AND/OR OBSTRUCTIONS TO VISIBILITY.
      SKY/WX - SKY CONDITION AND SIGNIFICANT WEATHER.
      TMP - AIR TEMPERATURE.     DP    - DEWPOINT TEMPERATURE.
      RH  - RELATIVE HUMIDITY.   PRES  - PRESSURE.
      HI  - HEAT INDEX.          WCI   - WIND CHILL INDEX.

*  THESE STATIONS ARE NOT NWS OR FAA STATIONS AND ARE NOT UNDER
   NWS QUALITY CONTROL.

LAZ038-040-048-061>063-065>067-069-280100-
SOUTHEAST LOUISIANA

CITY           SKY/WX    TMP DP  RH WIND       PRES   REMARKS
N.O. AUDUBON     N/A     93  76  57 MISG        N/A  HX 105
6HR MIN TEMP:  92; 6HR MAX TEMP:  99;

N.O. INTL ARPT PTSUNNY   87  74  64 SW14      30.02S HX  95
6HR MIN TEMP:  87; 6HR MAX TEMP:  94;

N.O. LAKEFRONT MOSUNNY   87  74  64 S10       30.02S HX  95
6HR MIN TEMP:  87; 6HR MAX TEMP:  93;

N.O. DOWNTOWN*   N/A     90  72  55 SE6       30.03S HX  96
6HR MIN TEMP:  86; 6HR MAX TEMP:  93;

SLIDELL        SUNNY     90  73  57 SW7       30.01R HX  98
6HR MIN TEMP:  90; 6HR MAX TEMP:  93;

BATON ROUGE    MOSUNNY   89  74  60 W10       30.01S HX  98
6HR MIN TEMP:  89; 6HR MAX TEMP:  94;

BOOTHVILLE     SUNNY     85  77  77 SW12      30.05S HX  95
6HR MIN TEMP:  85; 6HR MAX TEMP:  88;

BELLE CHASSE   PTSUNNY   86  73  65 SE6       30.02F
6HR MIN TEMP:  86; 6HR MAX TEMP:  93;

BOGALUSA*        N/A     91  74  58 CALM      30.03R HX 100
6HR MIN TEMP:  91; 6HR MAX TEMP:  94;

GALLIANO*      NOT AVBL
NEW ROADS*       N/A     90  76  62 MISG      30.01F HX 101
6HR MIN TEMP:  90; 6HR MAX TEMP:  93;

GONZALES*        N/A     87  78  75 SW6       30.03R HX  99
6HR MIN TEMP:  85; 6HR MAX TEMP:  93;

HAMMOND*       SUNNY     91  70  49 W3        30.03S HX  97
HOUMA*         MOSUNNY   90  72  55 W12       30.04S HX  96
PORT FOURCHON* CLEAR     86  75  70 SW10      30.07S HX  95

$$

MSZ070-080>082-280100-
SOUTHERN MISSISSIPPI

CITY           SKY/WX    TMP DP  RH WIND       PRES   REMARKS
MCCOMB         SUNNY     88  74  63 W6        30.02F HX  96
6HR MIN TEMP:  88; 6HR MAX TEMP:  92;

GULFPORT       SUNNY     92  75  57 SW8       30.00S HX 103
6HR MIN TEMP:  92; 6HR MAX TEMP:  97;

BILOXI         CLEAR     86  78  77 SW14      30.01R HX  99
6HR MIN TEMP:  86; 6HR MAX TEMP:  91;

PASCAGOULA     CLEAR     86  77  74 SW12      30.01S HX  97
6HR MIN TEMP:  86; 6HR MAX TEMP:  93;

STENNIS ARPT*  MOSUNNY  N/A N/A N/A SW3       30.01S

$$

COASTAL OBSERVATIONS
LAKE AND NEARSHORE STATIONS

STATION/POSITION TIME  TEMP    WIND        PRES    WAVE
                       AIR SEA DIR/SP/G            HT/PER
                 (UTC) (F)     (DEG/KT/KT) (MB)    (FT/S)
PASCAGOULA       2323   88     210/ 12/ 16 1015.9
WAVELAND YACHT   2323   90     230/  9/ 12 1015.5
GRAND ISLE       2323   88 87  250/  9/ 12 1018.4
SOUTHWEST PASS   2323   87 85  240/ 12/ 13 1018.2
NEW CANAL        2323   91 86  220/  2/  3 1017.2
SHELL BEACH      2323   89 83  200/  8/ 11 1016.9

OFFSHORE STATIONS

STATION/POSITION TIME  TEMP    WIND        PRES    WAVE
                       AIR SEA DIR/SP/G            HT/PER
                 (UTC) (F)     (DEG/KT/KT) (MB)    (FT/S)

$$




USA.gov is the U.S. government's official web portal to all federal, state and local government web resources and services.